Weather in Fabrichnoye

Russia / Sverdlovsk Oblast     58°05′32″N   63°45′50″E
temp.,
°C
wind,
m/s
gust,
m/s
humid.,
%
clouds,
%
prec.,
mm/h
press.,
hPa
HPBL,
m
19 april, mon
mon1923:00−3nne37470 0.0 1033821
02:00−4nne26523 0.0 1033711
05:00−5n24545 0.0 1035343
08:00−3nnw364428 0.0 10351141
11:000n4736100 0.0 10352131
14:00+3n5629100 0.0 10332353
17:00+2nne562720 0.0 10342067
20:00−2ne22440 0.0 103432
20 april, tue
tue2023:00−4ese22495 0.0 103420
02:00−4ssw23495 0.0 103449
05:00−4wsw26515 0.0 1033154
08:000w4842100 0.0 1032377
11:00+5w573731 0.0 10301178
14:00+8wnw57345 0.0 10281507
17:00+9nw58375 0.0 10271738
20:00+5wnw38575 0.0 1027119
21 april, wed
wed2123:00+2wnw38705 0.0 1027146
02:00+1nw39785 0.0 1028173
05:000nw35875 0.0 102985
08:00+4nnw24725 0.0 1031284
11:00+8n345865 0.0 10311278
14:00+9ene335488 0.0 10321103
17:00+9ene32535 0.0 10321019
20:00+6ese36695 0.0 1034122
22 april, thu
thu2223:00+4se34765 0.0 103576
02:00+2sse35795 0.0 103590
05:00+2sse35834 0.0 103687
08:00+6sse46675 0.0 1036270
11:00+11s56516 0.0 1036976
14:00+14s564025 0.0 10351698
17:00+15s573790 0.0 10341817
20:00+10sse3855100 0.0 1034149
23 april, fri
fri2323:00+8sse41163100 0.0 1034242
02:00+6sse4973100 0.0 1034199
05:00+5sse3980100 0.0 1034179
08:00+8s4106599 0.0 1034326
11:00+13s5841100 0.0 10341141
14:00+15ssw5736100 0.0 10331880
17:00+16s4736100 0.0 10322327
20:00+12s2252100 0.0 103324